Location: Unspecified
(0.0000°N, 0.0000°E)
Time: 20:28:17
(UTC+00:00)

Altair 2 - Visible Passes

Search period start: 08 March 2026 00:00
Search period end: 18 March 2026 00:00
Orbit: 522 x 2142 km, 81.3° (Epoch: 8 March)

Date Brightness Start Highest point End Pass type
(mag) Time Alt. Az. Time Alt. Az. Time Alt. Az.
8 Mar 10.9 02:23:24 10° ESE 02:27:39 13° E 02:32:16 10° ENE visible
8 Mar 8.7 04:10:36 10° S 04:19:39 86° W 04:31:34 10° N visible
9 Mar 10.4 02:40:48 10° SE 02:48:09 25° E 02:56:47 10° NE visible
9 Mar 8.8 04:31:37 10° SSW 04:40:38 57° W 04:52:14 10° N visible
10 Mar 9.7 03:00:00 10° SSE 03:08:42 41° E 03:19:26 10° NNE visible
10 Mar 9.2 04:53:11 10° SW 05:01:45 37° W 05:12:17 10° NNW visible
11 Mar 9.1 03:19:57 10° S 03:29:22 64° E 03:41:14 10° NNE visible
11 Mar 9.7 05:15:36 10° SW 05:22:56 23° W 05:31:25 10° NW visible
12 Mar 10.9 01:53:12 10° ESE 01:58:03 14° E 02:03:16 10° ENE visible
12 Mar 8.7 03:40:28 10° S 03:50:11 87° W 04:02:25 10° N visible
12 Mar 10.1 05:39:58 10° WSW 05:44:06 13° W 05:48:32 10° WNW visible
13 Mar 10.3 02:10:43 10° SE 02:18:35 26° E 02:27:36 10° NE visible
13 Mar 8.8 04:01:28 10° SSW 04:11:08 59° W 04:23:05 10° N visible
14 Mar 9.7 02:29:54 10° SSE 02:39:11 41° E 02:50:12 10° NNE visible
14 Mar 9.2 04:23:01 10° SSW 04:32:12 39° W 04:43:08 10° NNW visible
15 Mar 9.2 03:00:40 62° ENE 03:00:40 62° ENE 03:11:57 10° NNE visible
15 Mar 9.6 04:53:15 25° W 04:53:18 25° W 05:02:20 10° NW visible
16 Mar 10.9 01:31:15 13° ENE 01:31:15 13° ENE 01:34:04 10° ENE visible
16 Mar 9.2 03:23:46 59° N 03:23:46 59° N 03:33:08 10° N visible
16 Mar 10.2 05:16:17 13° WNW 05:16:17 13° WNW 05:19:47 10° NW visible
17 Mar 10.6 01:53:47 20° ENE 01:53:47 20° ENE 01:58:16 10° NE visible
17 Mar 9.5 03:46:17 41° NNW 03:46:17 41° NNW 03:53:46 10° N visible
